Iliamna, AK

3:43 PM AKDT on May 27, 2017 (GMT -0800)
Iliamna

Weather History for PAIL - December, 2013

Change the Weather History Date:

Saturday, December 7, 2013

  Actual Average Record
Temperature  
Mean Temperature 38 °F -  
Max Temperature 45 °F 20 °F 48 °F (2014)
Min Temperature 30 °F 9 °F -31 °F (1975)
Degree Days  
Heating Degree Days 26    
Moisture  
Dew Point 37 °F    
Average Humidity 89    
Maximum Humidity 100    
Minimum Humidity 79    
Precipitation  
Precipitation 0.00 in - - ()
Sea Level Pressure  
Sea Level Pressure 30.40 in    
Wind  
Wind Speed 10 mph (SE)    
Max Wind Speed 16 mph    
Max Gust Speed 22 mph    
Visibility 10 miles    
Events      
Averages and records for this station are not official NWS values.
T = Trace of Precipitation, MM = Missing Value Source: NWS Daily Summary

Daily Weather History Graph

Daily Weather History Graph

Search for Another Location

Airport or City:

Trip Planner

Search our weather history database for the weather conditions in past years. The results will help you decide how hot, cold, wet, or windy it might be!

Date:

Astronomy

Dec. 07, 2013 Rise Set
Actual Time 10:04 AM AKST 4:18 PM AKST
Civil Twilight 9:09 AM AKST 5:13 PM AKST
Nautical Twilight 8:13 AM AKST 6:08 PM AKST
Astronomical Twilight 7:23 AM AKST 6:59 PM AKST
Moon 12:54 PM AKST (12/7) 11:21 PM AKST (12/7)
Length of Visible Light 8h 04m
Length of Day
6h 13m
Waxing Crescent, 31% of the Moon is Illuminated
Dec 7
Waxing Crescent
Dec 9
First Quarter
Dec 17
Full
Dec 25
Last Quarter
Jan 1
New

Hourly Weather History & Observations

Time (AKST) Temp. Windchill Dew Point Humidity Pressure Visibility Wind Dir Wind Speed Gust Speed Precip Events Conditions
12:53 AM 44.1 °F 38.6 °F 39.9 °F 85% 30.42 in 10.0 mi East 10.4 mph - N/A   Overcast
1:53 AM 44.1 °F 37.7 °F 39.9 °F 85% 30.41 in 10.0 mi ESE 12.7 mph - N/A   Overcast
3:53 AM 44.1 °F 36.8 °F 39.0 °F 82% 30.40 in 10.0 mi ESE 16.1 mph - N/A   Overcast
4:16 AM 42.8 °F 36.6 °F 39.2 °F 87% 30.39 in 10.0 mi East 11.5 mph 20.7 mph N/A   Scattered Clouds
4:25 AM 42.8 °F 35.8 °F 39.2 °F 87% 30.38 in 10.0 mi East 13.8 mph - N/A   Mostly Cloudy
4:53 AM 42.1 °F 36.6 °F 39.0 °F 89% 30.39 in 10.0 mi East 9.2 mph - N/A   Partly Cloudy
5:53 AM 41.0 °F 36.4 °F 39.0 °F 93% 30.38 in 10.0 mi ESE 6.9 mph - N/A   Partly Cloudy
6:53 AM 41.0 °F 39.0 °F 39.0 °F 93% 30.37 in 10.0 mi SSE 3.5 mph - N/A   Clear
7:53 AM 39.9 °F 35.1 °F 37.9 °F 93% 30.38 in 10.0 mi SSE 6.9 mph - N/A   Clear
8:53 AM 39.0 °F 36.8 °F 37.0 °F 93% 30.38 in 10.0 mi ESE 3.5 mph - N/A   Partly Cloudy
9:53 AM 39.9 °F 32.9 °F 37.0 °F 89% 30.38 in 10.0 mi SE 11.5 mph - N/A   Partly Cloudy
10:53 AM 39.9 °F 32.1 °F 37.0 °F 89% 30.39 in 10.0 mi SE 13.8 mph - N/A   Partly Cloudy
11:53 AM 41.0 °F - 37.0 °F 86% 30.40 in 10.0 mi Calm Calm - N/A   Clear
12:53 PM 42.1 °F - 36.0 °F 79% 30.40 in 10.0 mi Calm Calm - N/A   Clear
1:53 PM 39.9 °F 32.1 °F 37.0 °F 89% 30.40 in 10.0 mi SSE 13.8 mph - N/A   Clear
2:53 PM 39.9 °F 31.8 °F 37.0 °F 89% 30.38 in 10.0 mi SE 15.0 mph 21.9 mph N/A   Partly Cloudy
3:53 PM 39.0 °F 32.8 °F 36.0 °F 89% 30.39 in 10.0 mi SSE 9.2 mph - N/A   Clear
4:53 PM 37.9 °F 29.2 °F 36.0 °F 93% 30.40 in 10.0 mi SSE 15.0 mph 21.9 mph N/A   Partly Cloudy
5:53 PM 37.9 °F 30.0 °F 35.1 °F 89% 30.41 in 10.0 mi SE 12.7 mph - N/A   Partly Cloudy
6:53 PM 37.9 °F 30.5 °F 35.1 °F 89% 30.42 in 10.0 mi SE 11.5 mph - N/A   Partly Cloudy
7:53 PM 37.0 °F 30.4 °F 35.1 °F 93% 30.41 in 10.0 mi SSE 9.2 mph - N/A   Clear
8:53 PM 37.0 °F 29.8 °F 35.1 °F 93% 30.42 in 10.0 mi SE 10.4 mph - N/A   Clear
9:53 PM 37.0 °F 33.3 °F 34.0 °F 89% 30.43 in 10.0 mi SE 4.6 mph - N/A   Clear
10:53 PM 32.0 °F 26.4 °F 30.9 °F 96% 30.43 in 10.0 mi NW 5.8 mph - N/A   Clear
11:53 PM 30.0 °F - 30.0 °F 100% 30.44 in 10.0 mi Calm Calm - N/A   Clear